Address 0xa4244e047511ab1a935d9b8376b1d6072657b0a4 5

 
 
Txn Hash Method
Block
From
To
Value [Txn Fee]
0x2a953881e9d7747bc6a73f66c438e2e01ab0aeec9bd33df1e253e57d3ac5eb02Auto Mint361962142022-11-29 2:28:394 days 19 hrs ago0xa4244e047511ab1a935d9b8376b1d6072657b0a4OUT 0x82cd05312cb03d2f7dfea261af856600419f1ec20 MATIC0.007128276438 31.773158956
0x992981200e678c590bc4870f91be8935438948984167335080cee76fbfc29843Auto Mint361960032022-11-29 2:21:254 days 19 hrs ago0xa4244e047511ab1a935d9b8376b1d6072657b0a4OUT 0x82cd05312cb03d2f7dfea261af856600419f1ec20 MATIC0.007257690144 32.349999974
0x62fe9ccabf5e8fc2a024f6fc8b79cf546e6149427658ef6ed03aae6e396442f7Safe Transfer Fr...361943602022-11-29 1:23:004 days 20 hrs ago0xa4244e047511ab1a935d9b8376b1d6072657b0a4OUT 0x82cd05312cb03d2f7dfea261af856600419f1ec20 MATIC0.002994570001 30.000000018
0x05d6697b62cb22149fb37b0474a88313b433e079d9ae31d2e9285b628334a386Cancel361943212022-11-29 1:21:424 days 20 hrs ago0xa4244e047511ab1a935d9b8376b1d6072657b0a4OUTSeaport 1.10 MATIC0.001839570001 30.000000023
0xcdf9e42cddc0a11bb6fa57dfd2586107aaf8cf71f850bc3098395a2fbbfc381fSafe Transfer Fr...361913132022-11-28 23:36:424 days 22 hrs ago0xa4244e047511ab1a935d9b8376b1d6072657b0a4OUT 0x82cd05312cb03d2f7dfea261af856600419f1ec20 MATIC0.003723895075 37.306475471
0x0dcd593430d67f831b0d70478d3e03daae4fbc5bf030e9cda5480f650305a9beSafe Transfer Fr...361874082022-11-28 21:15:545 days 24 mins ago0xa4244e047511ab1a935d9b8376b1d6072657b0a4OUT 0x82cd05312cb03d2f7dfea261af856600419f1ec20 MATIC0.011436413405 114.57150849
0x7506ef2bc98ae7a98433dbeb32756e92a0ad14e26d036d7620672ca37c1386e7Safe Transfer Fr...361820932022-11-28 18:12:395 days 3 hrs ago0xa4244e047511ab1a935d9b8376b1d6072657b0a4OUT 0x82cd05312cb03d2f7dfea261af856600419f1ec20 MATIC0.003424801394 34.310115257
0xd271fb25437d2682528acc84d35609c8e9d9d7822ce7f4ea19cda3a3f6ab69a8Safe Transfer Fr...361367442022-11-27 15:37:346 days 6 hrs ago0xa4244e047511ab1a935d9b8376b1d6072657b0a4OUT 0x82cd05312cb03d2f7dfea261af856600419f1ec20 MATIC0.006328069122 63.436109695
0x710733090ed44392f9a6dd31fa00ed5eca4eb3114d54a2ee9005163ee3bae9f0Cancel361367202022-11-27 15:36:466 days 6 hrs ago0xa4244e047511ab1a935d9b8376b1d6072657b0a4OUTSeaport 1.10 MATIC0.002901123026 47.311975517
0x262924665382217711283473f9f12860dc6cfd547855d14e0373f66b5800f756Auto Mint361065902022-11-26 21:49:176 days 23 hrs ago0xa4244e047511ab1a935d9b8376b1d6072657b0a4OUT 0x82cd05312cb03d2f7dfea261af856600419f1ec20 MATIC0.00784671528 34.975485874
0x77030610aaf706f76459dd34dd5223ee81aff50f7f5a72153d6bd193369c3be8Auto Mint361064182022-11-26 21:43:216 days 23 hrs ago0xa4244e047511ab1a935d9b8376b1d6072657b0a4OUT 0x82cd05312cb03d2f7dfea261af856600419f1ec20 MATIC0.007220268739 32.183200014
0xc788511e2dd1e5ea0423b8e6b8e74ce54b4683bb7419c04955972d24986b1840Cancel360638962022-11-25 21:04:338 days 35 mins ago0xa4244e047511ab1a935d9b8376b1d6072657b0a4OUTSeaport 1.10 MATIC0.003237860886 32.908434659
0x850310702c2e3cba6b7a4bc7388317c446c8aba13d3d1d36b9255415af211d2dSafe Transfer Fr...360586812022-11-25 18:03:068 days 3 hrs ago0xa4244e047511ab1a935d9b8376b1d6072657b0a4OUT 0x82cd05312cb03d2f7dfea261af856600419f1ec20 MATIC0.002994999922 30.004307016
0xc796b1855d02bb7dba730fadf1be72cd66f4ab5355dd36a775a898dad9574a01Auto Mint360585872022-11-25 17:59:548 days 3 hrs ago0xa4244e047511ab1a935d9b8376b1d6072657b0a4OUT 0x82cd05312cb03d2f7dfea261af856600419f1ec20 MATIC0.007754866192 34.566083166
0x3c94ce4c8535243a7923d220168c21b81fb6af664ff6ecbea5e67669fd5fbb03Auto Mint360584382022-11-25 17:54:488 days 3 hrs ago0xa4244e047511ab1a935d9b8376b1d6072657b0a4OUT 0x82cd05312cb03d2f7dfea261af856600419f1ec20 MATIC0.006732300303 30.008158285
0xdc7007b6c5ef722456eceea6c384486bbc59d8cea3b278ac0633e304c6966a2bSafe Transfer Fr...360562592022-11-25 16:39:478 days 5 hrs ago0xa4244e047511ab1a935d9b8376b1d6072657b0a4OUT 0x82cd05312cb03d2f7dfea261af856600419f1ec20 MATIC0.003994044861 40.038543046
0x50179d29ce722ff9407cce7b82f4efdd84a2244bc720e5294d9cf06312f6870cSafe Transfer Fr...360552072022-11-25 16:03:258 days 5 hrs ago0xa4244e047511ab1a935d9b8376b1d6072657b0a4OUT 0x82cd05312cb03d2f7dfea261af856600419f1ec20 MATIC0.011200276705 112.291355835
0xca64b6501e6c5753a2ac09ebd3187529697aca0bd85ecd29f8feb1e7e2763fc5Safe Transfer Fr...360550242022-11-25 15:57:078 days 5 hrs ago0xa4244e047511ab1a935d9b8376b1d6072657b0a4OUT 0x82cd05312cb03d2f7dfea261af856600419f1ec20 MATIC0.004167227788 41.774625713
0xde9cacdaf1ae9b9852eae052e7fda9df7d1d0e90daab4e8c03649bd1632cfaefSafe Transfer Fr...360546322022-11-25 15:43:398 days 5 hrs ago0xa4244e047511ab1a935d9b8376b1d6072657b0a4OUT 0x82cd05312cb03d2f7dfea261af856600419f1ec20 MATIC0.003355951481 33.620367684
0x17e9372dbc772bf1fe4e98045b06f1a4becbe0bdce4000b2d7643a2f2030f579Safe Transfer Fr...360287232022-11-25 0:41:568 days 20 hrs ago0xa4244e047511ab1a935d9b8376b1d6072657b0a4OUT 0x82cd05312cb03d2f7dfea261af856600419f1ec20 MATIC0.003200608322 32.084690722
0x3a747fdc35eebc98e59bb7c07e1f6343cf88e3411aabf5dab191237ec2b026a9Safe Transfer Fr...360286042022-11-25 0:37:508 days 21 hrs ago0xa4244e047511ab1a935d9b8376b1d6072657b0a4OUT 0x82cd05312cb03d2f7dfea261af856600419f1ec20 MATIC0.0029926502 30.000002011
0xbf3448e30dc8763ed01033cfd592afa15fc35650380c380bdc3b742790b7d3f5Safe Transfer Fr...360285502022-11-25 0:36:028 days 21 hrs ago0xa4244e047511ab1a935d9b8376b1d6072657b0a4OUT 0x82cd05312cb03d2f7dfea261af856600419f1ec20 MATIC0.002992650386 30.000003874
0x0a6e2584cd80c5a08b5b4476d4cf5769288b1b04b73daf5e0f6e488ec17d82f0Safe Transfer Fr...360284992022-11-25 0:34:168 days 21 hrs ago0xa4244e047511ab1a935d9b8376b1d6072657b0a4OUT 0x82cd05312cb03d2f7dfea261af856600419f1ec20 MATIC0.002992651006 30.000010094
0xaaea084b51848c3b87a18a06cea8841d24ef5bffeb381c5e6632784418f9027fSafe Transfer Fr...360284442022-11-25 0:32:228 days 21 hrs ago0xa4244e047511ab1a935d9b8376b1d6072657b0a4OUT 0x82cd05312cb03d2f7dfea261af856600419f1ec20 MATIC0.003061326075 30.692139551
0x0d4aa548f3a01c7af47b36e102d23e6725add8ee5ab46a0c5c166f871bf29a37Safe Transfer Fr...360283932022-11-25 0:30:368 days 21 hrs ago0xa4244e047511ab1a935d9b8376b1d6072657b0a4OUT 0x82cd05312cb03d2f7dfea261af856600419f1ec20 MATIC0.003249286133 32.572664367
[ Download CSV Export 
Latest 2 internal transactions
Parent Txn Hash Block From To Value
0x2288a08510a242fa0f854c91b4dc980b156a33d044851d8b22b5d3db31beba70279279482022-05-04 21:16:31213 days 23 mins ago QuickSwap: Router0xa4244e047511ab1a935d9b8376b1d6072657b0a411.879616111022193076 MATIC
0xa538e4eb50f7296bb71a8a283c86897226721b82469ef20788e924c616d22e7c214117672021-11-15 20:26:08383 days 1 hr ago 0x1b01fbd67a58d2ce795f63151db64caf2563a0a50xa4244e047511ab1a935d9b8376b1d6072657b0a40.9 MATIC
[ Download CSV Export 
Loading

Contract Name:
0 MATIC

Compiler Version
0

Optimization Enabled:
0 MATIC

Other Settings:
-NA-
Block Transaction Gas Used Reward
Age Block Fee Address BC Fee Address Voting Power Jailed Incoming
Block Uncle Number Difficulty Gas Used Reward
Loading
Loading
Make sure to use the "Vote Down" button for any spammy posts, and the "Vote Up" for interesting conversations.